| time (UTC) | temp F | wind direction | speed MPH | gust MPH | rain 1hr in | rain 24hr in | rain mn in | humidity % | barometer mb |
| 20260905135056 | 65 | 84 | 1.0 | 3.0 | 0.00 | 0.00 | 0.00 | 90 | 1013.6 |
| 20260905134054 | 65 | 85 | 1.0 | 3.0 | 0.00 | 0.00 | 0.00 | 90 | 1013.5 |
| 20260905133112 | 65 | 88 | 1.0 | 4.0 | 0.00 | 0.00 | 0.00 | 90 | 1013.3 |
| 20260905132133 | 65 | 71 | 2.0 | 4.0 | 0.00 | 0.00 | 0.00 | 90 | 1013.3 |
| 20260905131108 | 65 | 77 | 1.0 | 4.0 | 0.00 | 0.00 | 0.00 | 90 | 1013.3 |
| 20260905130123 | 65 | 75 | 1.0 | 3.0 | 0.00 | 0.00 | 0.00 | 90 | 1013.1 |
| 20260905125118 | 65 | 71 | 1.0 | 3.0 | 0.00 | 0.00 | 0.00 | 90 | 1013.2 |
| 20260905122954 | 66 | 95 | 0.0 | 2.0 | 0.00 | 0.00 | 0.00 | 90 | 1013.1 |
| 20260905121958 | 66 | 63 | 0.0 | 2.0 | 0.00 | 0.00 | 0.00 | 90 | 1013.1 |
| 20260905121002 | 66 | 23 | 0.0 | 2.0 | 0.00 | 0.00 | 0.00 | 90 | 1013.3 |
| 20260905114814 | 66 | 91 | 0.0 | 0.0 | 0.00 | 0.00 | 0.00 | 90 | 1013.2 |
| 20260905113823 | 66 | 91 | 0.0 | 0.0 | 0.00 | 0.00 | 0.00 | 90 | 1013.2 |
| 20260905112829 | 66 | 91 | 0.0 | 0.0 | 0.00 | 0.00 | 0.00 | 90 | 1013.2 |
| 20260905111828 | 66 | 91 | 0.0 | 0.0 | 0.00 | 0.00 | 0.00 | 90 | 1013.3 |
| 20260905110810 | 66 | 91 | 0.0 | 0.0 | 0.00 | 0.00 | 0.00 | 90 | 1013.4 |
| 20260905105832 | 66 | 91 | 0.0 | 0.0 | 0.00 | 0.00 | 0.00 | 90 | 1013.4 |
| 20260905104836 | 66 | 91 | 0.0 | 0.0 | 0.00 | 0.00 | 0.00 | 90 | 1013.3 |
| 20260905103809 | 66 | 91 | 0.0 | 0.0 | 0.00 | 0.00 | 0.00 | 90 | 1013.3 |
| 20260905102755 | 66 | 91 | 0.0 | 0.0 | 0.00 | 0.00 | 0.00 | 90 | 1013.4 |
| 20260905100717 | 67 | 96 | 0.0 | 2.0 | 0.00 | 0.00 | 0.00 | 89 | 1013.5 |
| 20260905095644 | 67 | 84 | 0.0 | 2.0 | 0.00 | 0.00 | 0.00 | 89 | 1013.4 |
| 20260905093504 | 68 | 113 | 1.0 | 3.0 | 0.00 | 0.00 | 0.00 | 89 | 1013.3 |
| 20260905092436 | 68 | 93 | 1.0 | 3.0 | 0.00 | 0.00 | 0.00 | 89 | 1013.4 |
| 20260905091444 | 68 | 98 | 1.0 | 3.0 | 0.00 | 0.00 | 0.00 | 89 | 1013.5 |
| 20260905085404 | 69 | 107 | 0.0 | 2.0 | 0.00 | 0.00 | 0.00 | 89 | 1013.4 |
| 20260905084405 | 69 | 120 | 1.0 | 3.0 | 0.00 | 0.00 | 0.00 | 89 | 1013.6 |
| 20260905083415 | 69 | 116 | 1.0 | 5.0 | 0.00 | 0.00 | 0.00 | 89 | 1013.5 |
| 20260905082440 | 69 | 127 | 1.0 | 5.0 | 0.00 | 0.00 | 0.00 | 89 | 1013.6 |
| 20260905075241 | 68 | 149 | 1.0 | 2.0 | 0.00 | 0.00 | 0.00 | 88 | 1013.7 |
| 20260905073102 | 69 | 110 | 0.0 | 2.0 | 0.00 | 0.00 | 0.00 | 89 | 1013.5 |
| 20260905072120 | 69 | 133 | 0.0 | 1.0 | 0.00 | 0.00 | 0.00 | 89 | 1013.5 |
| 20260905065940 | 69 | 141 | 0.0 | 3.0 | 0.00 | 0.00 | 0.00 | 89 | 1013.4 |
| 20260905063753 | 69 | 133 | 0.0 | 1.0 | 0.00 | 0.00 | 0.00 | 89 | 1013.4 |
| 20260905062743 | 69 | 153 | 0.0 | 3.0 | 0.00 | 0.00 | 0.00 | 89 | 1013.4 |
| 20260905061747 | 69 | 233 | 0.0 | 3.0 | 0.00 | 0.00 | 0.00 | 89 | 1013.4 |
| 20260905060723 | 69 | 276 | 1.0 | 6.0 | 0.00 | 0.00 | 0.00 | 89 | 1013.4 |
| 20260905055714 | 69 | 266 | 1.0 | 6.0 | 0.00 | 0.00 | 0.00 | 89 | 1013.3 |
| 20260905054736 | 69 | 269 | 1.0 | 3.0 | 0.00 | 0.00 | 0.00 | 89 | 1013.3 |
| 20260905053755 | 69 | 204 | 1.0 | 4.0 | 0.00 | 0.00 | 0.00 | 89 | 1013.4 |
| 20260905052738 | 69 | 278 | 2.0 | 5.0 | 0.00 | 0.00 | 0.00 | 89 | 1013.4 |
| 20260905051734 | 69 | 136 | 4.0 | 8.0 | 0.00 | 0.00 | 0.00 | 89 | 1013.5 |
| 20260905050705 | 69 | 260 | 4.0 | 8.0 | 0.00 | 0.00 | 0.00 | 89 | 1013.4 |
| 20260905045651 | 69 | 214 | 4.0 | 7.0 | 0.00 | 0.00 | 0.00 | 89 | 1013.4 |
| 20260905044636 | 69 | 221 | 4.0 | 7.0 | 0.00 | 0.00 | 0.00 | 90 | 1013.4 |
| 20260905043629 | 70 | 231 | 5.0 | 7.0 | 0.00 | 0.00 | 0.00 | 90 | 1013.3 |
| 20260905042619 | 69 | 262 | 5.0 | 8.0 | 0.00 | 0.00 | 0.00 | 89 | 1013.2 |
| 20260905041603 | 69 | 268 | 6.0 | 9.0 | 0.00 | 0.00 | 0.00 | 89 | 1013.1 |
| 20260905034247 | 70 | 9 | 7.0 | 12.0 | 0.00 | 0.00 | 0.00 | 87 | 1012.9 |
| 20260905033309 | 70 | 3 | 6.0 | 11.0 | 0.00 | 0.00 | 0.00 | 87 | 1012.8 |
| 20260905032310 | 70 | 291 | 6.0 | 10.0 | 0.00 | 0.00 | 0.00 | 87 | 1012.8 |
| 20260905031244 | 70 | 242 | 6.0 | 10.0 | 0.00 | 0.00 | 0.00 | 86 | 1012.6 |
| 20260905030229 | 71 | 268 | 5.0 | 9.0 | 0.00 | 0.00 | 0.00 | 86 | 1012.5 |
| 20260905025233 | 70 | 313 | 6.0 | 10.0 | 0.00 | 0.00 | 0.00 | 85 | 1012.4 |
| 20260905024233 | 70 | 309 | 6.0 | 10.0 | 0.00 | 0.00 | 0.00 | 85 | 1012.4 |
| 20260905023228 | 70 | 316 | 6.0 | 9.0 | 0.00 | 0.00 | 0.00 | 85 | 1012.4 |
| 20260905022221 | 71 | 227 | 6.0 | 9.0 | 0.00 | 0.00 | 0.00 | 84 | 1012.5 |
| 20260905020055 | 72 | 342 | 6.0 | 11.0 | 0.00 | 0.00 | 0.00 | 82 | 1012.5 |
| 20260905015056 | 72 | 273 | 7.0 | 10.0 | 0.00 | 0.00 | 0.00 | 81 | 1012.6 |
| 20260905014052 | 72 | 294 | 7.0 | 11.0 | 0.00 | 0.00 | 0.00 | 80 | 1012.7 |
| 20260905013115 | 73 | 245 | 7.0 | 11.0 | 0.00 | 0.00 | 0.00 | 80 | 1012.7 |
| 20260905012113 | 73 | 304 | 6.0 | 10.0 | 0.00 | 0.00 | 0.00 | 80 | 1012.8 |
| 20260905011136 | 74 | 265 | 6.0 | 10.0 | 0.00 | 0.00 | 0.00 | 79 | 1012.7 |
| 20260905010153 | 74 | 235 | 6.0 | 9.0 | 0.00 | 0.00 | 0.00 | 79 | 1012.8 |
| 20260905005132 | 74 | 261 | 6.0 | 9.0 | 0.00 | 0.00 | 0.00 | 77 | 1012.9 |
| 20260905004125 | 75 | 342 | 6.0 | 9.0 | 0.00 | 0.00 | 0.00 | 76 | 1012.9 |
| 20260905002003 | 75 | 89 | 6.0 | 11.0 | 0.00 | 0.00 | 0.00 | 76 | 1012.9 |
| 20260905001005 | 75 | 272 | 6.0 | 11.0 | 0.00 | 0.00 | 0.00 | 76 | 1012.8 |
| 20260904232547 | 76 | 255 | 6.0 | 11.0 | 0.00 | 0.00 | 0.00 | 75 | 1012.8 |
| 20260904230432 | 75 | 250 | 6.0 | 11.0 | 0.00 | 0.00 | 0.00 | 74 | 1012.9 |
| 20260904225438 | 76 | 261 | 6.0 | 11.0 | 0.00 | 0.00 | 0.00 | 73 | 1013.0 |
| 20260904224411 | 76 | 278 | 7.0 | 11.0 | 0.00 | 0.00 | 0.00 | 73 | 1012.9 |
| 20260904223337 | 77 | 236 | 7.0 | 10.0 | 0.00 | 0.00 | 0.00 | 72 | 1012.9 |
| 20260904222341 | 77 | 117 | 7.0 | 11.0 | 0.00 | 0.00 | 0.00 | 70 | 1013.1 |
| 20260904221314 | 77 | 239 | 7.0 | 11.0 | 0.00 | 0.00 | 0.00 | 69 | 1013.2 |
| 20260904220340 | 77 | 266 | 8.0 | 11.0 | 0.00 | 0.00 | 0.00 | 69 | 1013.4 |
| 20260904215336 | 77 | 229 | 8.0 | 11.0 | 0.00 | 0.00 | 0.00 | 69 | 1013.4 |
| 20260904214349 | 77 | 307 | 7.0 | 11.0 | 0.00 | 0.00 | 0.00 | 70 | 1013.4 |
| 20260904213347 | 77 | 176 | 8.0 | 12.0 | 0.00 | 0.00 | 0.00 | 70 | 1013.4 |
| 20260904212355 | 77 | 315 | 8.0 | 12.0 | 0.00 | 0.00 | 0.00 | 70 | 1013.4 |
| 20260904211339 | 77 | 179 | 8.0 | 11.0 | 0.00 | 0.00 | 0.00 | 69 | 1013.5 |
| 20260904210333 | 77 | 58 | 7.0 | 11.0 | 0.00 | 0.00 | 0.00 | 68 | 1013.5 |
| 20260904205336 | 78 | 64 | 6.0 | 11.0 | 0.00 | 0.00 | 0.00 | 69 | 1013.4 |
| 20260904204344 | 77 | 218 | 7.0 | 12.0 | 0.00 | 0.00 | 0.00 | 70 | 1013.4 |
| 20260904203348 | 77 | 256 | 7.0 | 12.0 | 0.00 | 0.00 | 0.00 | 69 | 1013.5 |
| 20260904202338 | 77 | 18 | 7.0 | 12.0 | 0.00 | 0.00 | 0.00 | 69 | 1013.5 |
| 20260904201355 | 77 | 186 | 7.0 | 12.0 | 0.00 | 0.00 | 0.00 | 70 | 1013.7 |
| 20260904200353 | 77 | 302 | 8.0 | 12.0 | 0.00 | 0.00 | 0.00 | 69 | 1013.7 |
| 20260904195409 | 77 | 203 | 7.0 | 11.0 | 0.00 | 0.00 | 0.00 | 70 | 1013.7 |
| 20260904194420 | 77 | 359 | 7.0 | 11.0 | 0.00 | 0.00 | 0.00 | 70 | 1013.7 |
| 20260904193424 | 77 | 192 | 7.0 | 11.0 | 0.00 | 0.00 | 0.00 | 69 | 1013.8 |
| 20260904192352 | 77 | 74 | 4.0 | 10.0 | 0.00 | 0.00 | 0.00 | 70 | 1014.0 |
| 20260904191341 | 77 | 134 | 5.0 | 9.0 | 0.00 | 0.00 | 0.00 | 71 | 1014.3 |
| 20260904190316 | 76 | 190 | 5.0 | 9.0 | 0.00 | 0.00 | 0.00 | 74 | 1014.3 |
| 20260904185306 | 76 | 133 | 5.0 | 8.0 | 0.00 | 0.00 | 0.00 | 74 | 1014.4 |
| 20260904184320 | 75 | 286 | 5.0 | 8.0 | 0.00 | 0.00 | 0.00 | 73 | 1014.4 |
| 20260904183314 | 75 | 212 | 4.0 | 8.0 | 0.00 | 0.00 | 0.00 | 73 | 1014.4 |
| 20260904182241 | 76 | 296 | 5.0 | 8.0 | 0.00 | 0.00 | 0.00 | 72 | 1014.4 |
| 20260904181237 | 76 | 70 | 5.0 | 10.0 | 0.00 | 0.00 | 0.00 | 72 | 1014.5 |
| 20260904180238 | 76 | 229 | 6.0 | 10.0 | 0.00 | 0.00 | 0.00 | 72 | 1014.5 |
| 20260904175219 | 76 | 246 | 6.0 | 9.0 | 0.00 | 0.00 | 0.00 | 72 | 1014.6 |
| 20260904174222 | 76 | 294 | 4.0 | 8.0 | 0.00 | 0.00 | 0.00 | 73 | 1014.6 |
| 20260904173220 | 75 | 251 | 4.0 | 7.0 | 0.00 | 0.00 | 0.00 | 73 | 1014.4 |
| 20260904172219 | 75 | 240 | 3.0 | 6.0 | 0.00 | 0.00 | 0.00 | 73 | 1014.4 |
| 20260904171205 | 75 | 268 | 3.0 | 6.0 | 0.00 | 0.00 | 0.00 | 74 | 1014.4 |
| 20260904170226 | 75 | 264 | 2.0 | 5.0 | 0.00 | 0.00 | 0.00 | 74 | 1014.3 |
| 20260904165209 | 75 | 238 | 3.0 | 5.0 | 0.00 | 0.00 | 0.00 | 74 | 1014.1 |
| 20260904164157 | 74 | 257 | 2.0 | 4.0 | 0.00 | 0.00 | 0.00 | 76 | 1014.1 |
| 20260904163200 | 74 | 236 | 1.0 | 4.0 | 0.00 | 0.00 | 0.00 | 75 | 1014.0 |
| 20260904162155 | 74 | 236 | 1.0 | 4.0 | 0.00 | 0.00 | 0.00 | 75 | 1013.9 |
| 20260904161140 | 74 | 118 | 1.0 | 3.0 | 0.00 | 0.00 | 0.00 | 77 | 1013.9 |
| 20260904160129 | 73 | 108 | 0.0 | 2.0 | 0.00 | 0.00 | 0.00 | 78 | 1013.8 |
| 20260904155135 | 72 | 84 | 1.0 | 3.0 | 0.00 | 0.00 | 0.00 | 79 | 1013.7 |
| 20260904153029 | 71 | 103 | 1.0 | 4.0 | 0.00 | 0.00 | 0.00 | 82 | 1013.7 |
| 20260904152022 | 70 | 81 | 1.0 | 4.0 | 0.00 | 0.00 | 0.00 | 83 | 1013.7 |
| 20260904150957 | 69 | 84 | 2.0 | 4.0 | 0.00 | 0.00 | 0.00 | 84 | 1013.7 |
| 20260904150018 | 69 | 115 | 1.0 | 3.0 | 0.00 | 0.00 | 0.00 | 84 | 1013.6 |
| 20260904143827 | 67 | 68 | 1.0 | 3.0 | 0.00 | 0.00 | 0.00 | 87 | 1013.2 |
| 20260904142820 | 67 | 94 | 1.0 | 3.0 | 0.00 | 0.00 | 0.00 | 88 | 1013.2 |
| 20260904141801 | 66 | 86 | 1.0 | 2.0 | 0.00 | 0.00 | 0.00 | 88 | 1013.1 |